Location: Worth Mountain WMA
(34.9569°N, 81.4819°W)
Time: 13:32:46
(UTC-05:00)

Aureole 3 Rocket - Pass Details

Date: 18 August 2017
Orbit: 399 x 1743 km, 82.5° (Epoch: 24 November)

Event Time Altitude Azimuth Distance (km) Brightness Sun altitude
Rises 23:10:40 0° 350° (N) 4,703 8.3 -32.1°
Reaches altitude 10° 23:13:58 10° 349° (N) 3,557 7.6 -32.5°
Maximum altitude 23:22:20 71° 268° (W) 1,197 4.4 -33.6°
Enters shadow 23:22:20 71° 268° (W) 1,197 4.4 -33.6°
